sat.trackr.live / text

‹ back to catalog

COSMOS 2597 (RODNIK-S *)

NORAD 66647 · 2025-273A

PAYLOAD ACTIVE UNKNOWN

§ Identity

Operator
Country
CIS
Launch date
2025-11-25
Launch site
PLMSC
Launch vehicle
Mass (kg)
RCS (m²)

External: N2YO · Heavens-Above · Gunter

§ Orbital elements

Epoch: 2026-09-20T13:08:33.252576Z

Period
115.86 min
Inclination
82.4955°
Eccentricity
0.0012385
Mean motion
12.42901759 rev/d
Perigee alt
1,484.6 km
Apogee alt
1,504.1 km
Semi-major
7,872.5 km
B*
1.5293e-4
RAAN
111.2311°
Arg perigee
13.3345°
Mean anomaly
346.8060°
Rev number
3,714

§ Raw data

COSMOS 2597 (RODNIK-S *)1 66647U 25273A   26263.54760709  .00000031  00000+0  15293-3 0  99912 66647  82.4955 111.2311 0012385  13.3345 346.8060 12.42901759 37144

JSON: /api/v1/satellites/66647 · /tle

For live sub-satellite position, see the globe view (requires WebGL).

§ Visibility from observer

Set your observer location to see the next 7 days of passes ≥ 10°. The values pass through the URL so the page stays shareable.

No JS? Fill the form by hand. The geolocation button needs JavaScript.